Regional Weather Roundup
Issued by NWS

Home | Current Version | Previous Version | Text Only | Print | Product List | Glossary Off
Versions: 1 2 3 4 5 6 7 8 9 10 11 12 13 14 15 16 17 18 19 20 21 22 23 24 25 26 27 28 29 30 31 32 33 34 35 36 37 38 39 40 41 42 43 44 45 46 47 48 49 50

000
ASUS45 KBOI 291310
RWRID
WEATHER ROUNDUP FOR IDAHO
NATIONAL WEATHER SERVICE BOISE ID
700 AM MDT MON SEP 29 2014

NOTE: "FAIR" INDICATES FEW OR NO CLOUDS BELOW 12000 FEET
WITH NO SIGNIFICANT WEATHER AND/OR OBSTRUCTIONS TO VISIBILITY

IDZ012-014-291400-
SOUTHWEST IDAHO


CITY           SKY/WX    TMP DP  RH WIND       PRES   REMARKS
BOISE          CLOUDY    53  48  83 E9        29.92R
CALDWELL       CLOUDY    54  43  66 SE10      29.92S
MOUNTAIN HOME  LGT RAIN  52  52 100 E13       29.93F
$$

IDZ016-017-291400-
SOUTHCENTRAL IDAHO


CITY           SKY/WX    TMP DP  RH WIND       PRES   REMARKS
BURLEY         MOCLDY    46  44  93 CALM      29.97S
JEROME         CLOUDY    50  46  86 E5        29.98S
TWIN FALLS     CLOUDY    51  47  86 SW3       29.97S
$$

IDZ019>023-291400-
SOUTHEAST IDAHO


CITY           SKY/WX    TMP DP  RH WIND       PRES   REMARKS
IDAHO FALLS    CLOUDY    44  42  93 CALM      30.00S
POCATELLO      MOCLDY    46  45  96 SW7       30.00S
REXBURG        CLOUDY    43  41  93 CALM      29.99S
$$

IDZ006-010-011-018-031-032-291400-
CENTRAL IDAHO MOUNTAINS


CITY           SKY/WX    TMP DP  RH WIND       PRES   REMARKS
MCCALL         LGT RAIN  46  44  93 CALM      29.95R
HAILEY         CLOUDY    46  45  93 W6        30.01S
STANLEY          N/A     38  36  92 CALM      30.00S
SALMON         PTCLDY    45  43  93 SE7       29.94F
CHALLIS        MOCLDY    44  42  93 CALM      29.97S
$$

IDZ002-004-006-007-026-291400-
NORTHERN IDAHO


CITY           SKY/WX    TMP DP  RH WIND       PRES   REMARKS
LEWISTON       CLOUDY    66  46  48 NE5       29.81S
LOWELL           N/A     56  52  86 CALM      29.85R
COEUR D`ALENE  PTCLDY    52  43  71 E6        29.85S
MULLAN PASS    CLOUDY    42  39  89 S7        29.93S
$$



USA.gov is the U.S. government's official web portal to all federal, state and local government web resources and services.